Tracking 27086 objects as of 22-Mar-2023
HD Live streaming from Space Station
objects crossing your sky now

ESAIL

Track ESAIL now!
10-day predictions


NORAD ID: 46273
Int'l Code: 2020-061B
Perigee: 502.2 km
Apogee: 508.7 km
Inclination: 97.4 °
Period: 94.6 minutes
Semi major axis: 6876 km
RCS: Unknown
Launch date: September 3, 2020
Source: Canada (CA)
Launch site: FRENCH GUIANA (FRGUI)
Your satellite tracking list
Your tracking list is empty




NASA's NSSDC Master Catalog

Two Line Element Set (TLE):
1 46273U 20061B   23081.14925960  .00014238  00000-0  61667-3 0  9998
2 46273  97.3601 150.4842 0004722 223.5850 136.5014 15.22498809141008
Source of the keplerian elements: AFSPC